Weather History for Elkins, WV

Change the Weather History Date:

Tuesday, May 6, 2014

  Actual Average Record
Temperature  
Mean Temperature 60 °F 55 °F  
Max Temperature 74 °F 69 °F 88 °F (1999)
Min Temperature 45 °F 42 °F 25 °F (1910)
Degree Days  
Heating Degree Days 5 10  
Month to date heating degree days 70 63  
Since 1 July heating degree days 5877 5626  
Cooling Degree Days 0 0  
Month to date cooling degree days 0 0  
Year to date cooling degree days 2 3  
Growing Degree Days 9 (Base 50)    
Moisture  
Dew Point 39 °F    
Average Humidity 57    
Maximum Humidity 86    
Minimum Humidity 27    
Precipitation  
Precipitation T in 0.16 in 1.08 in (1961)
Month to date precipitation 0.11 0.90  
Year to date precipitation 11.50 14.99  
Snow  
Snow 0.00 in - - ()
Month to date snowfall 0.0  
Since 1 September snowfall 92.3  
Snow Depth 0.00 in    
Sea Level Pressure  
Sea Level Pressure 29.98 in    
Wind  
Wind Speed 3 mph (NNW)    
Max Wind Speed 14 mph    
Max Gust Speed 18 mph    
Visibility 10 miles    
Events Rain    
T = Trace of Precipitation, MM = Missing Value Source: NWS Daily Summary

Daily Weather History Graph

Daily Weather History Graph

Search for Another Location

Airport:

Trip Planner

Search our weather history database for the weather conditions in past years. The results will help you decide how hot, cold, wet, or windy it might be!

Date:

Astronomy

May. 06, 2014 Rise Set
Actual Time 6:15 AM EDT 8:16 PM EDT
Civil Twilight 5:46 AM EDT 8:46 PM EDT
Nautical Twilight 5:11 AM EDT 9:21 PM EDT
Astronomical Twilight 4:32 AM EDT 10:00 PM EDT
Moon 12:29 PM EDT (5/6) 1:35 AM EDT (5/6)
Length of Visible Light 14h 59m
Length of Day
14h 00m
Waxing Crescent, 46% of the Moon is Illuminated
May 6
Waxing Crescent
May 6
First Quarter
May 14
Full
May 21
Last Quarter
May 28
New

Hourly Weather History & Observations

Time (EDT) Temp. Dew Point Humidity Pressure Visibility Wind Dir Wind Speed Gust Speed Precip Events Conditions
12:51 AM 48.9 °F 42.1 °F 77% 29.93 in 10.0 mi Calm Calm - N/A   Overcast
1:51 AM 48.9 °F 41.0 °F 74% 29.92 in 10.0 mi Calm Calm - N/A   Overcast
2:51 AM 48.9 °F 41.0 °F 74% 29.91 in 10.0 mi Calm Calm - N/A   Overcast
3:51 AM 48.0 °F 41.0 °F 77% 29.91 in 9.0 mi Calm Calm - 0.00 in Rain Light Rain
7:51 AM 51.8 °F 42.8 °F 71% 29.97 in 10.0 mi Calm Calm - N/A   Clear
8:51 AM 55.9 °F 41.0 °F 57% 30.00 in 10.0 mi Calm Calm - N/A   Clear
10:51 AM 63.0 °F 34.0 °F 34% 30.00 in 10.0 mi Variable 3.5 mph - N/A   Clear
11:51 AM 66.0 °F 35.1 °F 32% 29.98 in 10.0 mi Variable 5.8 mph - N/A   Clear
12:51 PM 69.1 °F 37.0 °F 31% 29.99 in 10.0 mi NW 9.2 mph - N/A   Clear
1:51 PM 70.0 °F 39.0 °F 32% 29.97 in 10.0 mi Variable 4.6 mph - N/A   Clear
2:51 PM 72.0 °F 39.0 °F 30% 29.97 in 10.0 mi NW 8.1 mph - N/A   Clear
3:51 PM 72.0 °F 37.9 °F 29% 29.96 in 10.0 mi NW 6.9 mph - N/A   Clear
4:51 PM 72.0 °F 37.0 °F 28% 29.97 in 10.0 mi Variable 4.6 mph - N/A   Clear
5:51 PM 72.0 °F 36.0 °F 27% 29.98 in 10.0 mi North 9.2 mph - N/A   Clear
6:51 PM 72.0 °F 37.0 °F 28% 29.99 in 10.0 mi North 8.1 mph - N/A   Clear
7:51 PM 66.9 °F 36.0 °F 32% 30.01 in 10.0 mi North 5.8 mph - N/A   Clear
8:51 PM 55.0 °F 41.0 °F 59% 30.03 in 10.0 mi Calm Calm - N/A   Clear
9:51 PM 51.1 °F 43.0 °F 74% 30.05 in 10.0 mi Calm Calm - N/A   Clear
10:51 PM 50.0 °F 42.1 °F 74% 30.04 in 10.0 mi Calm Calm - N/A   Clear
11:51 PM 48.0 °F 42.1 °F 80% 30.04 in 10.0 mi Calm Calm - N/A   Partly Cloudy